Погода в Камышлове

Погода в Камышлове : погода сейчас, прогноз погоды и архив. Всё, что Вы хотите узнать о погоде в Камышлове!

Хотите узнать прогноз погоды в Камышлове? Тогда Вам сюда: Погода в Камышлове

Поиск расширенной информации на нашем сайте:

Другие новости

Новости СМИ2

Главная страница сайта

Новости сайта

03.07.2017

Напоминаем, что на нашем специализированном сайте Метеоцентр.Азия вы можете получить высокодетализированные автоматические прогнозы погоды по пунктам России, СНГ и мира в авиационном формате (включающие направление и скорость ветра, видимость, явления погоды, количество и форму облачности, нижнюю и верхнюю границу облачности).


Погода в Камышлове - сегодня

Время (UTC), дата Ветер
(°,м/с) 
Видим.   Явления Облачность Т
(°С)
Тd
(°С)
f(%) Тe
(°С)
Pmin
(гПа)
dP
(гПа)
Po
(мм)
O2
(г/м3)
Тmin Tmax R s Состояние
почвы
18 20.11.17 190 (Ю) 4000 м    4/0 верхняя 
[Ci fib]
-2.9 -5.3 83 -4  1025.2  -0.3  757  309           
21 20.11.17 180 (Ю) 4000 м    6/6 600 м кучево-дожд. 
[Cb cap]
-2.1 -4.6 83 -3  1024.5  -0.7  756  308           
00 21.11.17 180 (Ю) 4000 м    4/4 600 м кучево-дожд. 
[Cb cap]
-0.6 -3.2 83 -1  1024.4  756  306           
03 21.11.17 170 (Ю) 4000 м  в посл. час ливневой дождь  8/8 600 м кучево-дожд. 
[Cb cap]
-0.1 -2.5 84 +1  1024.8  0.5  757  305  -3    0.0  равномерный
мокрый или
старый снег
100% 
06 21.11.17 180 (Ю) 20000 м  {ливн. осадки}  9/9 600 м 
[Sc]
+1.4 -1.9 79 +1  1025.1  0.3  757  304  -0.2         
09 21.11.17 180 (Ю) 20000 м    ясно 
+1.7 -2.7 73 +1  1024.8  -0.3  757  303           
12 21.11.17 140 (ЮВ) 10 км    ясно 
-1 -4.6 77 -3  1024.3  -0.6  756  306           
15 21.11.17 180 (Ю) 4000 м    ясно 
-0.1 -5.4 67 -2  1023.4  -0.8  756  305    +2       
18 21.11.17 180 (Ю) 4000 м    ясно 
-1 -4.7 76 -3  1022.7  -0.8  755  306           
21 21.11.17 170 (Ю) 4000 м    ясно 
-1.4 -5.3 75 -2  1021.7  -1  754  306           
00 22.11.17 180 (Ю) 4000 м    6/0 верхняя 
[Ci fib]
-2.3 -6.6 72 -4  1020.8  -1  754  307           
03 22.11.17 180 (Ю) 4000 м    4/0 верхняя 
[Ci fib]
-3.2 -6.4 79 -5  1020.6  -0.3  753  308  -3.2      равномерный
мокрый или
старый снег
100% 
06 22.11.17 170 (Ю) 20000 м    4/0 верхняя 
[Ci fib]
-2.8 -6 79 -5  1020.4  -0.2  753  307  -3.6         
09 22.11.17 160 (Ю) 20000 м    4/0 верхняя 
[Ci fib]
-1.2 -5.2 74 -3  1020  -0.2  753  305           
12 22.11.17 140 (ЮВ) 10 км    4/0 верхняя 
[Ci fib]
-1.6 -4.7 79 -3  1019.8  -0.3  753  306           
15 22.11.17 140 (ЮВ) 4000 м    ясно 
-3.1 -5.4 84 -5  1019.4  -0.4  752  307    -1.1       
18 22.11.17 150 (ЮВ) 4000 м    ясно 
-2.3 -4.9 82 -4  1018.8  -0.6  752  306           
21 22.11.17 140 (ЮВ) 4000 м    ясно 
-2 -4.8 81 -4  1018.8  0.1  752  306           
00 23.11.17 150 (ЮВ) н/о    н/о 
-2 -5 80 -4  1018.7  0.1  752  306           
03 23.11.17 160 (Ю) 4000 м    ясно 
-2.1 -5.3 79 -3  1018.7  752  306  -3.4      равномерный
мокрый или
старый снег
100% 
06 23.11.17 150 (ЮВ) 20000 м    3/0 верхняя 
[Ci sp]
-2.1 -5.7 76 -3  1019.4  0.7  752  306  -3         
09 23.11.17 150 (ЮВ) 20000 м    4/0 верхняя 
[Ci sp]
+1.1 -4.7 65 1019.1  -0.1  752  302           
12 23.11.17 150 (ЮВ) 10 км    6/0 верхняя 
[Ci sp]
-1.1 -5 75 -2  1019.5  0.2  753  305           
15 23.11.17 140 (ЮВ) 4000 м    ясно 
-2 -5.2 79 -3  1019.3  -0.1  752  306    +1.3       
18 23.11.17 160 (Ю) 4000 м    ясно 
-2.3 -6.1 75 -3  1019.4  752  306           
Время (UTC), дата Ветер
(°,м/с) 
Видим.   Явления Облачность Т
(°С)
Тd
(°С)
f(%) Тe
(°С)
Pmin
(гПа)
dP
(гПа)
Po
(мм)
O2
(г/м3)
Тmin Tmax R s Состояние
почвы

Для получения пояснительной информации подведите курсор к названию столбца.

ПОГОДА в Камышлове - архив

Всё, что Вы хотите узнать о погоде в Камышлове - удобно и подробно!

Выберите нужную дату (начиная с 1 января 2015* года) и нажмите кнопку "Найти".
Будут отображены архивные сводки погоды по пункту Камышлов, начиная с указанной даты.


Отображать данные в формате CSV (для использования в таблицах Excel)


Внимание! Наш архив погоды предназначен исключительно для личного некоммерческого использования в познавательных целях. Если Вам необходимы официальные справки о состоянии погоды (для производственных, юридических, коммерческих и т.п. целей), обращайтесь в органы Росгидромета.

*Примечание: данная дата относится к архиву по метеостанциям СССР (Россия, СНГ, Балтия).
Архив по метеостанциям Зарубежной Европы и Азии (кроме Китая) хранится 10 дней, по другим регионам земного шара (Китай, Африка, Америка, Австралия, Океания) - 1 день.

Камышлов - район местоположения метеостанции


Название, широта, долгота, высота метеостанции:
Камышлов 56.9°ш. 62.7°д. 127 м над ур. моря [Российская Федерация]

Дополнительная информация

В oтличие oт бoльшинства пoгoдных сайтoв мы публикуем пoдрoбную метеoинфoрмацию в детальнoм прoфессиoнальнoм фoрмате.

Характеристики температуры и влажнoсти вoздуха измеряются на высoте 2 м в тени вдали oт зданий и деревьев.
Скoрoсть ветра измеряется на высoте 10 м (на урoвне рoста челoвека скoрoсть ветра ниже в 1.5-2 раза). Если метеoстанция нахoдится в гoрoде или в лесу, тo скoрoсть ветра занижена на 2-4 м/с пo сравнению с oткрытым местoм. Скoрoсть ветра над акватoриями крупных рек и oзёр, а также на вершинах хoлмoв на 2-5 м/с выше, чем в oбычных услoвиях.
Атмoсфернoе давление в разных тoчках местнoсти мoжет значительнo oтличаться oт давления на метеoстанции, в зависимoсти oт услoвий рельефа (при пoдъёме на 10 м давление пoнижается примернo на 1 мм рт.ст.).